DW0805 Weather Reports


time (UTC)temp
C
wind
direction
speed
KPH
gust
KPH
rain 1hr
cm
rain 24hr
cm
rain mn
cm
humidity
%
barometer
mb
20260906053515 14 288 16.1 25.7 0.00 0.00 0.00 84 1018.1
20260906052514 14 308 19.3 32.2 0.00 0.00 0.00 84 1018.0
20260906050514 14 302 17.7 32.2 0.00 0.00 0.00 84 1017.8
20260906045514 14 292 19.3 37.0 0.00 0.00 0.00 83 1017.6
20260906043514 14 270 20.9 29.0 0.00 0.00 0.00 84 1017.4
20260906042514 14 302 24.1 33.8 0.00 0.00 0.00 84 1017.3
20260906033513 14 288 17.7 32.2 0.00 0.00 0.00 83 1016.3
20260906032514 14 302 19.3 27.4 0.00 0.00 0.00 84 1016.3
20260906031514 14 301 19.3 27.4 0.00 0.00 0.00 84 1016.1
20260906030515 14 291 12.9 32.2 0.00 0.00 0.00 84 1016.0
20260906022514 14 290 20.9 35.4 0.00 0.00 0.00 83 1015.6
20260906021516 14 314 19.3 33.8 0.00 0.00 0.00 84 1015.6
20260906012514 14 298 22.5 40.2 0.00 0.00 0.00 83 1015.1
20260906011515 14 285 24.1 33.8 0.00 0.00 0.00 83 1015.0
20260906005514 15 297 25.7 40.2 0.00 0.00 0.00 83 1014.8
20260905233515 15 319 19.3 38.6 0.00 0.00 0.00 82 1013.7
20260905232514 15 303 24.1 35.4 0.00 0.00 0.00 81 1013.7
20260905230516 15 300 25.7 37.0 0.00 0.00 0.00 81 1013.5
20260905224516 15 301 43.5 45.1 0.00 0.00 0.00 81 1013.3
20260905222514 15 300 29.0 40.2 0.00 0.00 0.00 81 1012.8
20260905221510 15 279 24.1 41.8 0.00 0.00 0.00 81 1012.7
20260905220514 15 289 20.9 40.2 0.00 0.00 0.00 80 1012.5
20260905215514 15 296 22.5 38.6 0.00 0.00 0.00 80 1012.3
20260905213514 15 276 22.5 48.3 0.00 0.00 0.00 79 1012.2
20260905211515 15 283 25.7 41.8 0.00 0.00 0.00 80 1011.9
20260905205515 15 286 27.4 41.8 0.00 0.00 0.00 80 1011.6
20260905202515 15 288 25.7 45.1 0.00 0.00 0.00 81 1011.3
20260905200515 15 296 25.7 45.1 0.00 0.00 0.00 78 1011.1
20260905195514 15 286 27.4 53.1 0.00 0.00 0.00 79 1010.9
20260905194516 15 281 35.4 45.1 0.00 0.00 0.00 79 1010.9
20260905193517 15 279 29.0 45.1 0.00 0.00 0.00 79 1010.7
20260905192515 15 293 29.0 56.3 0.00 0.00 0.00 79 1010.4
20260905191515 15 261 45.1 56.3 0.00 0.00 0.00 79 1010.4
20260905185515 15 260 30.6 57.9 0.00 0.05 0.00 79 1010.3
20260905180515 16 276 35.4 45.1 0.00 0.18 0.00 77 1009.6
20260905175515 16 326 29.0 53.1 0.00 0.23 0.00 76 1009.5
20260905172515 16 289 27.4 46.7 0.00 0.23 0.00 74 1009.2
20260905171515 16 275 33.8 45.1 0.00 0.23 0.00 72 1009.1
20260905165515 16 298 29.0 45.1 0.00 0.23 0.00 73 1009.0
20260905164516 17 278 29.0 45.1 0.00 0.23 0.00 74 1008.9
20260905163515 16 261 29.0 41.8 0.00 0.23 0.00 74 1008.8
20260905162515 17 281 29.0 41.8 0.00 0.23 0.00 73 1008.6
20260905160514 17 266 29.0 45.1 0.00 0.23 0.00 72 1008.4
20260905154516 17 261 20.9 35.4 0.00 0.23 0.00 75 1008.2
20260905153514 17 276 22.5 38.6 0.00 0.23 0.00 75 1008.1
20260905152514 17 261 24.1 45.1 0.00 0.23 0.00 74 1008.0
20260905151515 17 255 33.8 46.7 0.00 0.23 0.00 75 1007.9
20260905150514 17 281 22.5 46.7 0.00 0.23 0.00 72 1007.9
20260905144515 18 262 27.4 41.8 0.00 0.23 0.00 73 1007.7
20260905142514 18 257 25.7 45.1 0.00 0.23 0.00 74 1007.6
20260905134516 17 264 29.0 45.1 0.00 0.23 0.00 74 1007.5
20260905133515 17 275 25.7 37.0 0.00 0.23 0.00 78 1007.5
20260905132515 17 266 25.7 35.4 0.00 0.23 0.00 81 1007.3
20260905131515 16 258 30.6 45.1 0.00 0.28 0.00 77 1007.4
20260905125516 18 257 27.4 46.7 0.00 0.41 0.00 75 1007.3
20260905121514 17 255 25.7 41.8 0.00 0.61 0.00 77 1006.9
20260905120516 17 264 22.5 41.8 0.00 0.64 0.00 77 1006.9
20260905115515 17 249 19.3 40.2 0.00 0.71 0.00 79 1006.8
20260905112515 17 251 20.9 40.2 0.00 0.79 0.00 79 1006.6
20260905110515 17 311 20.9 33.8 0.00 0.84 0.00 78 1006.4
20260905102515 17 314 25.7 40.2 0.00 0.89 0.00 77 1006.1
20260905101516 17 261 25.7 41.8 0.00 0.89 0.00 77 1006.1
20260905095515 17 258 24.1 40.2 0.00 0.91 0.00 77 1006.0
20260905093515 16 269 27.4 40.2 0.00 0.91 0.00 77 1005.8
20260905090515 17 310 29.0 45.1 0.00 0.97 0.00 76 1005.5
20260905085515 17 305 29.0 41.8 0.00 0.99 0.00 78 1005.4
20260905084516 17 253 20.9 33.8 0.00 0.99 0.00 79 1005.5
20260905080515 16 321 17.7 35.4 0.00 0.99 0.00 80 1005.3
20260905075517 16 324 20.9 32.2 0.00 0.99 0.00 81 1005.3
20260905074515 16 272 24.1 40.2 0.00 0.99 0.00 79 1005.1
20260905072515 16 273 22.5 40.2 0.00 0.99 0.00 82 1005.0
20260905063515 16 252 20.9 33.8 0.00 0.99 0.00 83 1004.6
20260905060515 15 236 17.7 29.0 0.00 0.99 0.00 85 1004.4